Regional Weather Roundup
Issued by NWS

Home | Current Version | Previous Version | Graphics & Text | Print | Product List | Glossary On
Versions: 1 2 3 4 5 6 7 8 9 10 11 12 13 14 15 16 17 18 19 20 21 22 23 24 25 26 27
000
ASUS45 KSLC 300010
RWRUT

UTAH REGIONAL WEATHER ROUNDUP
NATIONAL WEATHER SERVICE SALT LAKE CITY UT
600 PM MDT SUN MAY 29 2016

UTZ001>011-023>025-300100-

NORTHERN UTAH

CITY           SKY/WX    TMP DP  RH WIND       PRES   REMARKS
BRIGHAM CITY     N/A     76  35  21 SW3       29.98F
HILL AFB       PTSUNNY   74  40  29 S7        30.01F
LOGAN          MOSUNNY   74  41  30 SW3       29.98F
OGDEN          PTSUNNY   77  37  23 W9        29.98F
PROVO AIRPORT  PTSUNNY   72  37  28 SE13      30.02S
SALT LAKE CITY PTSUNNY   79  34  19 CALM      29.97F
VERNAL         CLOUDY    66  40  38 NE6       30.11F
WENDOVER       PTSUNNY   73  37  27 W5        29.99F
HEBER CITY     CLOUDY    64  34  32 S15G26    30.06S
WEST JORDAN    PTSUNNY   73  39  29 S16       30.03R

$$

UTZ012>022-026-027-300100-

SOUTHERN/CENTRAL UTAH

CITY           SKY/WX    TMP DP  RH WIND       PRES   REMARKS
BLANDING       MOSUNNY   78  18  10 CALM      30.12F
BRYCE CANYON   MOSUNNY   68  19  15 VRB5      30.17F
CEDAR CITY     MOSUNNY   80  22  11 W14G23    30.01S
DELTA          CLOUDY    72  30  21 S28G37    30.02R
HANKSVILLE     MOSUNNY   82  30  15 NW21      29.96S
MILFORD        CLOUDY    74  34  23 N14G22    30.03R
MOAB/CYNLANDS  MOSUNNY   84  25  11 N6        29.95F
PRICE          CLOUDY    69  32  25 NW9       30.11F
ST GEORGE      CLOUDY    90  30  12 W8G16     29.87S
KANAB          SUNNY     84  16   8 SW8       30.01F

$$

REGIONAL REPORTS     COLORADO/ARIZONA

CITY           SKY/WX    TMP DP  RH WIND       PRES   REMARKS
CRAIG, CO      CLOUDY    67  35  30 CALM      30.16R
GRAND JUNCTION CLOUDY    74  34  23 S10       30.04F
RIFLE          CLOUDY    70  32  24 S12G22    30.11S
MONTROSE       CLOUDY    70  35  27 N9        30.14F
CORTEZ         SUNNY     79  20  11 SW7       30.06F
PAGE, AZ       SUNNY     87   9   5 VRB5      29.92F
GRAND CANYON   SUNNY     76  15  10 S14G22    30.12S
KINGMAN        SUNNY     86  21   9 SW17G26   29.94F
FLAGSTAFF      SUNNY     70  11  10 SW13G24   30.15F

$$

REGIONAL REPORTS    NEVADA/IDAHO/WYOMING

CITY           SKY/WX    TMP DP  RH WIND       PRES   REMARKS
LAS VEGAS, NV  MOSUNNY   91  23   8 VRB3      29.80F
ELY            PTSUNNY   67  34  29 E6        30.11F
ELKO           PTSUNNY   77  34  21 W12       30.00F
POCATELLO, ID  CLOUDY    68  42  38 S21G30    30.02R
BURLEY         CLOUDY    71  38  29 W5        29.98F
EVANSTON, WY   CLOUDY    63  38  39 S15G21    30.15S
ROCK SPRINGS   CLOUDY    60  32  34 SW20      30.16R
KEMMERER       LGT RAIN  54  45  71 SE13G18   30.17F

$$




USA.gov is the U.S. government's official web portal to all federal, state and local government web resources and services.